Tracking 30696 objects as of 15-Jun-2025
HD Live streaming from Space Station
objects crossing your sky now

STARLINK-11339

Track STARLINK-11339 now!
10-day predictions
STARLINK-11339 is classified as:


NORAD ID: 61691
Int'l Code: 2024-195E
Perigee: 366.4 km
Apogee: 367.3 km
Inclination: 53.2 °
Period: 91.7 minutes
Semi major axis: 6737 km
RCS: Unknown
Launch date: October 30, 2024
Source: United States (US)
Launch site: AIR FORCE WESTERN TEST RANGE (AFWTR)
Your satellite tracking list
Your tracking list is empty




NASA's NSSDC Master Catalog

Two Line Element Set (TLE):
1 61691U 24195E   25165.71154368 -.00000427  00000-0  13264-5 0  9993
2 61691  53.1580 267.3702 0000655  86.0868 274.0225 15.69703462 36943
Source of the keplerian elements: AFSPC